Wetbulb
48.83 45.21 43.04 46.22 47.30 47.38 45.79 44.75 44.22 46.86 46.15 44.24 45.35 45.76 47.92 46.48 45.90 46.64 46.77 45.68 44.78 43.51 43.14 43.62 44.43 46.46 48.10 49.88 49.43 48.31 49.02 47.77 48.14 48.20 48.43 47.51 45.15 44.25 43.28 43.72 44.47 44.48 45.14 46.15
44.35 41.98 47.73 48.99 47.64 46.14 44.51 43.16 43.38 46.75 44.76 43.19 44.76 44.77 47.63 47.76 45.90 47.08 46.87 45.82 44.86 42.39 42.03 42.48 44.06 45.31 47.15 47.46 48.30 48.78 49.41 50.39 50.51 49.09 46.82 45.02 43.34 42.49 41.57 41.67 41.15 41.41 41.51 41.85
44.04 46.08 46.68 45.25 44.04 42.57 43.41 42.48 43.26 43.32 42.99 43.58 43.22 42.03 44.69 47.99 47.34 47.10 47.02 47.03 45.13 42.91 41.80 41.57 42.41 44.00 44.83 44.97 45.79 46.24 46.62 46.37 45.85 45.15 43.84 42.80 42.41 42.13 40.29 39.13 38.35 38.83 39.25 39.50
44.91 48.05 43.82 43.31 42.90 44.03 41.10 45.82 43.88 42.69 40.64 38.37 43.72 36.19 44.44 47.17 44.37 43.32 43.38 44.08 43.53 43.17 42.70 42.16 41.41 41.98 42.11 41.57 42.63 43.68 43.47 43.83 44.45 45.08 43.93 43.35 41.21 37.80 38.08 37.43 37.57 37.42 37.92 37.83
43.42 41.41 41.07 41.20 43.26 45.06 42.77 44.23 43.21 42.85 40.74 40.38 41.05 36.34 42.50 46.66 43.66 42.81 42.40 42.33 42.65 42.61 41.81 40.67 40.84 40.14 39.46 40.21 40.47 40.93 40.93 40.83 41.64 42.26 42.40 40.92 38.26 38.16 37.84 37.55 36.51 36.21 36.46 36.78
44.56 44.53 44.38 44.62 42.68 44.37 44.18 42.47 41.03 40.71 40.22 33.47 39.09 38.93 40.63 42.20 42.55 45.65 42.70 41.72 41.87 41.08 40.78 40.10 38.93 37.97 37.65 38.43 39.04 39.44 38.56 38.32 39.66 40.24 40.32 39.25 37.93 37.32 36.73 36.44 35.65 35.50 35.54 35.48
42.25 42.11 44.14 43.99 40.98 41.47 42.69 40.91 35.64 33.20 31.72 32.12 38.60 38.33 41.52 46.45 43.52 45.33 41.85 40.78 41.46 40.94 39.92 38.38 36.44 36.79 36.73 36.99 37.37 37.34 37.31 36.72 38.24 38.74 38.60 38.54 37.97 37.73 36.56 36.11 35.68 35.03 34.46 34.00
39.34 37.62 42.99 43.53 44.12 42.16 39.37 41.40 36.47 30.30 31.82 34.97 33.28 32.36 39.36 44.23 43.93 42.82 43.86 41.92 41.40 39.92 39.45 37.93 37.11 36.85 36.05 36.10 36.44 36.18 36.40 35.67 36.60 36.79 36.64 37.34 37.44 36.77 36.38 36.36 35.98 35.19 34.11 33.42
39.63 39.86 43.56 43.99 45.00 45.95 39.59 36.91 43.78 35.49 29.99 31.50 36.58 38.84 43.51 38.97 38.11 38.97 41.66 40.69 39.65 39.28 38.98 38.08 37.94 37.28 36.27 35.68 35.77 36.14 35.51 35.31 35.60 35.63 35.66 35.62 36.00 35.62 34.88 35.10 35.20 34.49 33.93 32.89
44.48 38.67 40.59 40.52 41.45 42.45 41.31 43.31 33.70 35.56 30.21 29.33 36.20 38.10 38.88 36.20 37.33 38.18 39.15 39.11 39.02 39.36 38.76 38.51 38.03 37.33 36.75 36.35 36.21 36.23 35.97 34.87 35.19 35.21 35.24 34.91 35.13 35.24 34.89 34.71 33.79 33.30 32.35 32.32
44.68 41.14 36.37 38.10 37.16 37.97 36.66 36.59 38.19 39.11 37.25 33.01 31.93 36.64 45.38 44.39 42.54 39.02 39.11 39.49 39.40 39.03 38.61 38.41 38.17 37.67 36.95 36.89 36.02 35.57 35.23 34.67 34.34 34.75 34.58 34.58 34.28 34.39 34.48 33.81 33.29 32.80 32.07 31.46
43.91 40.68 38.30 38.11 41.21 41.84 42.56 39.58 38.98 34.21 31.53 33.54 33.62 36.54 41.32 46.13 45.95 43.00 40.48 40.16 40.99 40.35 39.81 39.23 38.59 37.08 36.16 35.76 35.42 34.92 35.06 34.66 34.55 34.85 34.48 34.23 34.06 33.80 33.40 32.89 32.66 32.41 31.09 30.82
42.56 37.47 33.56 35.84 35.95 36.69 35.24 38.43 39.46 38.84 36.70 33.61 32.75 36.29 39.58 39.59 41.41 42.43 41.74 41.14 41.22 40.48 39.94 39.44 38.59 36.91 35.78 35.31 34.92 34.61 34.65 34.38 34.60 34.63 34.09 33.72 33.44 33.01 32.93 32.52 31.73 31.06 30.28 29.40
43.89 38.91 36.40 35.02 38.75 39.85 34.17 35.89 37.37 36.99 32.77 34.30 35.51 38.75 37.01 38.15 39.09 40.08 41.65 41.75 41.32 40.17 39.50 39.29 38.52 38.11 37.15 36.16 35.26 34.90 34.87 35.34 34.72 34.27 33.36 33.09 32.91 32.85 32.84 32.25 30.99 29.68 29.22 28.16
41.94 35.69 38.63 39.34 41.05 41.48 38.17 36.63 36.22 34.37 36.74 34.76 38.00 38.89 42.67 40.24 40.68 41.75 41.70 41.63 40.38 39.13 38.82 38.64 38.56 38.97 38.65 37.17 36.36 35.74 35.57 35.08 34.92 33.44 32.77 32.89 33.40 33.25 32.55 30.80 29.36 28.10 27.25 27.04
39.66 35.29 36.82 34.67 39.19 38.99 36.34 37.79 38.00 36.56 37.13 37.94 39.21 39.42 46.23 43.96 43.54 42.61 42.10 40.58 39.54 39.11 38.86 38.86 38.95 38.62 38.45 38.20 37.23 36.03 35.28 34.27 34.17 32.74 32.05 33.21 32.49 31.23 29.86 28.34 26.39 25.68 24.64 23.90
35.34 34.20 32.94 31.47 36.37 35.86 29.59 35.07 36.93 38.13 38.86 39.26 35.31 40.39 41.87 41.13 39.19 40.20 40.69 39.91 39.21 39.76 39.79 38.91 38.69 38.55 38.63 39.76 37.63 36.56 35.81 34.86 32.33 31.13 30.73 30.63 30.85 28.81 27.64 26.73 24.93 23.75 23.24 23.12
34.84 33.09 34.05 32.11 31.81 26.16 36.52 41.26 39.54 38.95 40.22 40.79 39.70 37.69 38.84 38.67 38.61 40.06 42.67 40.19 38.61 38.86 39.55 39.58 39.28 39.71 39.12 39.37 37.85 37.61 35.89 33.56 31.09 30.59 30.26 29.75 28.90 27.29 26.57 24.57 23.29 23.04 23.00 21.49
38.17 34.73 31.78 29.60 29.51 34.20 37.36 30.18 34.64 35.10 36.72 41.74 39.64 36.39 34.67 34.55 35.87 36.87 38.77 39.06 39.28 39.57 39.98 39.66 40.20 40.25 39.42 37.06 36.56 34.04 31.75 31.45 30.05 29.26 29.38 28.80 28.14 26.57 24.99 22.60 21.98 22.50 21.72 20.85
32.18 36.87 32.88 28.09 28.35 27.27 34.44 33.83 36.05 37.79 31.50 38.35 38.16 35.16 31.97 32.40 32.59 37.23 34.83 34.69 37.12 38.33 36.35 36.20 36.58 35.50 34.85 34.51 33.06 29.41 28.77 28.40 27.97 28.64 29.16 28.87 27.53 25.99 24.10 22.89 21.60 22.35 21.51 20.62
27.23 28.99 28.58 30.77 29.23 32.69 34.28 30.06 34.06 29.55 33.44 34.04 37.45 34.89 32.51 33.38 37.12 35.11 34.81 34.20 34.80 33.71 31.79 32.09 32.08 32.20 33.34 32.08 28.83 28.06 27.90 27.13 28.99 28.39 27.49 26.55 26.42 24.68 24.16 22.61 22.08 20.26 18.80 17.94
29.12 27.88 28.03 30.39 27.78 26.59 31.21 28.36 31.08 33.79 31.78 33.07 36.49 35.33 33.64 32.27 31.60 32.11 33.07 31.31 30.88 29.82 30.17 30.64 30.12 30.14 30.24 28.52 28.25 27.64 27.14 28.79 27.43 26.55 24.96 23.59 22.71 22.63 21.57 19.16 18.52 17.26 16.24 14.85
27.51 33.07 31.46 31.89 30.94 27.64 30.91 29.62 31.29 31.48 32.38 30.56 32.98 33.42 33.73 30.67 30.01 30.66 29.72 29.43 29.15 29.69 29.34 29.50 28.73 27.82 28.05 27.12 27.28 26.91 27.71 25.87 23.47 22.58 20.97 20.07 19.19 19.99 18.51 16.32 15.92 14.29 14.25 14.26
27.62 29.34 31.09 31.01 28.12 28.09 28.07 30.11 29.70 30.47 31.25 31.88 32.93 32.49 32.29 30.06 29.26 28.66 28.85 28.84 28.42 27.88 27.02 26.77 26.17 25.26 25.07 25.40 25.36 26.57 24.53 22.82 20.48 20.12 18.69 17.52 15.80 16.43 15.23 16.09 16.61 15.81 16.36 15.24
27.83 28.05 27.45 24.12 24.47 26.04 28.78 29.63 30.52 30.30 30.41 30.36 31.14 31.31 31.04 30.39 29.18 29.20 28.10 27.79 27.88 27.69 26.05 25.52 25.27 24.85 25.18 25.63 24.87 24.43 22.08 19.85 20.56 20.02 17.97 18.16 16.86 15.09 15.22 15.23 16.41 15.66 17.05 17.97
26.94 25.92 25.11 25.93 27.14 30.44 29.12 32.02 32.06 29.85 29.42 29.87 28.72 27.09 27.72 28.98 28.23 27.93 27.47 27.72 27.40 26.66 25.63 23.56 23.23 22.79 23.55 23.67 22.76 21.25 19.77 18.77 19.74 19.00 17.76 18.31 17.29 15.86 15.92 16.07 14.94 19.30 19.86 19.29
MSLP
1014.83 1014.40 1013.18 1012.82 1012.82 1012.43 1012.52 1012.33 1012.14 1012.20 1013.39 1013.95 1013.19 1012.82 1012.75 1014.25 1015.17 1015.51 1016.39 1017.50 1018.59 1019.76 1021.10 1021.78 1022.20 1022.38 1022.34 1022.30 1022.47 1022.88 1023.14 1023.42 1023.39 1023.52 1023.42 1023.77 1024.31 1025.04 1025.77 1026.11 1026.19 1026.22 1026.01 1025.97
1014.94 1013.57 1012.72 1012.72 1012.91 1012.84 1012.99 1012.76 1012.43 1012.58 1013.61 1014.24 1013.27 1012.56 1012.46 1012.84 1013.87 1014.70 1015.71 1016.92 1018.23 1019.81 1020.87 1021.63 1022.02 1022.39 1022.47 1022.67 1022.86 1022.99 1023.03 1023.13 1023.27 1023.35 1023.70 1023.97 1024.54 1025.09 1025.71 1026.28 1026.71 1026.84 1026.96 1027.00
1013.32 1012.77 1012.95 1013.29 1013.50 1013.49 1013.13 1012.95 1012.78 1013.04 1014.09 1014.34 1013.63 1012.29 1011.78 1011.62 1012.99 1014.29 1015.45 1016.56 1017.89 1019.16 1020.20 1021.30 1021.99 1022.41 1022.75 1022.96 1023.29 1023.36 1023.55 1023.71 1023.96 1024.11 1024.36 1024.72 1025.20 1025.54 1026.14 1026.84 1027.24 1027.47 1027.49 1027.67
1013.43 1012.97 1013.47 1013.70 1013.47 1013.62 1013.15 1013.23 1013.70 1013.84 1014.28 1013.61 1013.83 1011.32 1010.57 1010.69 1012.26 1013.99 1015.48 1016.60 1017.73 1018.92 1020.09 1020.99 1021.81 1022.49 1023.03 1023.55 1023.80 1023.93 1024.16 1024.13 1024.26 1024.28 1024.46 1024.60 1025.13 1025.86 1026.63 1027.12 1027.81 1028.22 1028.31 1028.40
1012.71 1013.39 1013.73 1013.63 1013.30 1013.86 1013.80 1014.19 1014.46 1014.59 1014.54 1014.29 1013.87 1013.32 1009.71 1010.23 1011.44 1012.81 1014.67 1016.28 1017.58 1018.78 1019.88 1020.94 1021.89 1022.67 1023.30 1023.83 1024.08 1024.39 1024.45 1024.66 1024.73 1024.71 1024.96 1025.32 1025.69 1026.39 1027.08 1027.43 1027.92 1028.57 1028.90 1029.09
1013.19 1014.00 1013.91 1013.62 1014.30 1014.31 1014.78 1015.03 1015.38 1015.57 1015.32 1013.86 1013.27 1012.82 1008.83 1009.68 1010.30 1011.47 1013.84 1015.86 1017.14 1018.55 1019.78 1021.00 1022.29 1023.18 1023.76 1024.28 1024.37 1024.71 1024.97 1025.15 1025.35 1025.45 1025.76 1025.99 1026.30 1026.50 1027.21 1027.84 1028.29 1028.69 1028.95 1029.47
1012.98 1013.23 1013.79 1014.20 1014.62 1015.30 1014.95 1015.00 1014.98 1015.07 1015.19 1012.90 1012.29 1011.87 1008.91 1009.23 1010.38 1011.17 1013.09 1015.15 1016.69 1018.23 1019.45 1020.69 1021.93 1022.76 1023.59 1024.21 1024.59 1024.97 1025.28 1025.60 1025.88 1026.16 1026.49 1026.78 1027.00 1027.09 1027.62 1027.81 1028.47 1029.31 1029.59 1030.04
1011.39 1011.59 1012.36 1013.23 1012.71 1013.29 1014.32 1014.22 1013.84 1013.69 1013.87 1013.03 1013.19 1010.95 1009.40 1009.84 1010.74 1011.94 1013.22 1015.08 1016.67 1018.09 1019.21 1020.26 1021.30 1022.14 1023.05 1023.89 1024.42 1024.80 1025.27 1025.81 1026.18 1026.63 1027.00 1027.58 1027.95 1028.07 1028.31 1028.44 1028.75 1029.28 1029.73 1030.04
1010.72 1011.04 1011.32 1012.42 1012.95 1013.12 1013.96 1014.04 1013.86 1014.19 1014.86 1013.89 1011.28 1010.06 1009.68 1010.66 1011.73 1012.68 1013.46 1014.92 1016.21 1017.47 1018.58 1019.63 1020.71 1021.64 1022.56 1023.44 1024.04 1024.48 1025.06 1025.64 1026.11 1026.66 1027.26 1027.87 1028.37 1028.73 1029.02 1029.06 1029.21 1029.38 1029.97 1030.21
1009.84 1010.95 1012.07 1013.15 1013.68 1013.61 1013.60 1013.54 1014.57 1014.56 1013.60 1012.12 1009.39 1008.34 1007.94 1009.77 1010.73 1012.24 1013.18 1014.27 1015.79 1017.23 1018.39 1019.27 1020.26 1021.27 1022.37 1023.32 1024.01 1024.47 1024.91 1025.52 1026.18 1026.84 1027.28 1027.92 1028.62 1028.99 1029.27 1029.22 1029.35 1029.91 1030.38 1030.57
1010.47 1011.21 1012.70 1013.54 1012.91 1012.25 1013.73 1013.46 1013.26 1012.85 1012.13 1010.94 1009.16 1006.95 1006.13 1007.28 1008.84 1010.51 1012.32 1013.68 1014.85 1016.17 1017.39 1018.42 1019.51 1020.68 1021.75 1022.67 1023.52 1024.23 1024.92 1025.46 1026.16 1026.81 1027.23 1027.66 1028.36 1029.06 1029.33 1029.49 1029.73 1030.11 1030.60 1030.75
1009.92 1010.70 1011.11 1011.33 1011.82 1012.19 1011.74 1011.80 1012.29 1011.94 1011.77 1011.01 1009.81 1006.22 1007.07 1007.28 1007.96 1009.74 1011.71 1013.14 1014.36 1015.55 1016.68 1017.76 1018.87 1020.06 1021.18 1022.30 1023.22 1023.74 1024.63 1025.23 1026.03 1026.65 1027.22 1027.57 1028.14 1028.81 1029.18 1029.36 1029.72 1030.27 1030.43 1031.08
1009.65 1010.93 1011.94 1011.46 1012.39 1012.81 1012.02 1011.28 1011.25 1011.36 1011.41 1009.38 1009.90 1006.80 1007.95 1008.57 1008.97 1009.94 1011.06 1012.35 1013.57 1014.88 1016.05 1017.05 1018.17 1019.12 1020.21 1021.42 1022.67 1023.41 1023.97 1024.83 1025.54 1026.13 1026.90 1027.43 1027.98 1028.51 1028.98 1029.34 1029.90 1030.51 1030.73 1031.26
1008.86 1009.92 1009.98 1008.79 1008.66 1009.10 1010.24 1010.29 1010.68 1011.04 1010.28 1007.46 1006.61 1006.88 1008.02 1008.51 1009.14 1010.04 1010.84 1011.93 1012.99 1014.03 1015.18 1016.13 1017.31 1018.13 1019.25 1020.21 1021.30 1022.53 1023.34 1024.14 1025.16 1025.76 1026.48 1026.98 1027.61 1028.22 1028.62 1029.38 1029.80 1030.36 1030.79 1031.07
1009.37 1010.02 1010.11 1008.80 1008.70 1008.61 1008.73 1008.95 1009.21 1009.23 1006.57 1007.80 1004.03 1006.00 1006.69 1007.66 1008.47 1008.90 1010.14 1011.61 1012.77 1013.77 1014.64 1015.37 1016.27 1017.19 1018.20 1019.33 1020.34 1021.68 1022.72 1023.54 1024.58 1025.24 1026.04 1026.39 1027.21 1028.00 1028.34 1029.11 1029.94 1030.55 1030.87 1031.11
1009.69 1009.73 1010.34 1009.10 1008.62 1008.76 1008.46 1008.26 1007.46 1007.17 1006.96 1006.66 1005.72 1004.83 1006.06 1006.72 1007.95 1008.94 1009.81 1011.09 1012.10 1012.92 1013.82 1014.74 1015.58 1016.52 1017.29 1018.38 1019.44 1020.63 1021.72 1022.85 1023.74 1024.50 1025.38 1026.09 1026.93 1027.62 1028.15 1029.15 1029.94 1030.37 1030.98 1031.29
1010.02 1010.55 1010.50 1008.71 1008.93 1008.93 1008.26 1003.91 1007.21 1005.96 1005.89 1005.67 1005.63 1004.26 1006.70 1007.45 1008.53 1009.23 1009.90 1010.88 1011.76 1012.46 1013.15 1014.24 1015.08 1015.84 1016.83 1017.70 1018.98 1019.99 1020.96 1022.01 1023.25 1024.14 1025.07 1025.73 1026.44 1027.26 1028.18 1028.89 1029.59 1030.22 1030.36 1030.98
1009.01 1009.94 1010.01 1008.72 1009.10 1007.20 1002.98 1004.57 1004.91 1005.02 1004.85 1005.65 1006.07 1006.85 1007.51 1007.96 1008.99 1009.62 1010.28 1011.15 1011.91 1012.68 1013.43 1014.26 1015.18 1015.96 1016.89 1017.80 1018.91 1019.73 1020.64 1021.61 1022.78 1023.81 1024.68 1025.48 1026.06 1026.96 1027.71 1028.47 1029.03 1029.55 1030.18 1030.62
1008.23 1009.06 1009.04 1008.66 1007.55 1005.56 1004.25 1005.27 1005.28 1005.05 1004.07 1005.33 1006.30 1007.77 1008.79 1009.55 1010.48 1010.64 1010.86 1011.34 1012.13 1012.82 1013.45 1014.16 1014.91 1015.63 1016.70 1017.72 1018.60 1019.57 1020.45 1021.57 1022.67 1023.43 1024.14 1024.80 1025.57 1026.53 1027.34 1027.95 1028.57 1029.21 1029.65 1030.17
1008.86 1008.61 1008.62 1008.59 1007.11 1005.77 1004.32 1004.64 1005.19 1005.39 1005.47 1005.55 1006.52 1007.75 1008.76 1010.02 1011.00 1010.41 1010.97 1011.96 1012.53 1013.21 1013.86 1014.45 1015.16 1015.94 1016.82 1017.80 1018.66 1019.66 1020.71 1021.57 1022.24 1022.81 1023.31 1024.04 1025.00 1025.91 1026.61 1027.21 1027.81 1028.58 1029.24 1029.69
1009.07 1008.96 1007.96 1007.66 1007.06 1006.49 1005.99 1006.49 1006.52 1007.10 1006.57 1006.43 1006.91 1008.07 1009.07 1009.33 1009.94 1010.39 1011.25 1012.40 1013.10 1013.73 1014.51 1015.26 1015.90 1016.43 1017.07 1017.96 1018.82 1019.80 1020.67 1021.19 1021.34 1022.18 1022.95 1023.77 1024.45 1025.31 1026.11 1026.87 1027.74 1028.37 1029.07 1029.55
1007.41 1007.99 1007.84 1008.10 1007.82 1007.39 1006.91 1007.87 1007.51 1007.20 1007.18 1007.43 1007.83 1008.28 1008.79 1009.66 1010.34 1011.08 1011.79 1012.73 1013.47 1014.23 1015.04 1015.62 1016.22 1016.79 1017.46 1018.16 1019.01 1019.78 1020.35 1020.48 1021.42 1022.14 1023.00 1023.81 1024.49 1025.17 1025.88 1026.59 1027.36 1028.16 1028.89 1029.23
1007.41 1006.43 1006.83 1007.66 1007.81 1007.82 1008.01 1008.07 1007.85 1007.81 1007.71 1008.23 1008.49 1008.83 1009.35 1010.14 1010.94 1011.59 1012.39 1013.13 1013.85 1014.52 1015.26 1015.90 1016.61 1017.35 1017.89 1018.44 1019.06 1019.73 1019.75 1020.49 1021.44 1022.23 1022.92 1024.05 1024.82 1025.31 1025.91 1026.54 1027.16 1027.91 1028.44 1028.67
1006.89 1006.86 1006.89 1007.60 1008.42 1008.64 1008.88 1008.97 1008.72 1008.62 1008.63 1008.75 1009.04 1009.40 1009.88 1010.42 1011.23 1012.10 1012.91 1013.73 1014.35 1015.06 1015.80 1016.56 1017.40 1017.98 1018.35 1018.62 1019.17 1019.65 1020.22 1020.77 1021.51 1022.37 1023.22 1024.03 1024.72 1025.47 1026.01 1026.47 1026.76 1027.07 1027.34 1027.49
1006.61 1006.76 1007.08 1008.02 1008.77 1009.38 1009.80 1009.57 1009.21 1009.07 1009.15 1009.34 1009.60 1009.84 1010.20 1010.85 1011.70 1012.40 1013.32 1014.14 1014.75 1015.33 1016.11 1016.73 1017.19 1017.74 1018.10 1018.54 1019.05 1019.56 1020.15 1020.91 1021.81 1022.54 1023.21 1023.85 1024.35 1024.99 1025.56 1025.84 1025.86 1026.11 1026.25 1026.40
1006.18 1006.40 1006.75 1006.76 1007.43 1008.11 1008.51 1008.43 1008.30 1008.77 1008.94 1009.37 1009.97 1010.66 1011.14 1011.44 1012.19 1012.95 1013.72 1014.32 1014.91 1015.43 1016.11 1016.80 1017.32 1017.95 1018.27 1018.71 1019.29 1019.76 1020.13 1020.82 1021.59 1022.20 1022.79 1023.37 1023.83 1024.43 1024.80 1025.17 1025.43 1025.40 1025.50 1025.92
Wind_Speed
9 10 14 18 17 17 7 9 12 7 4 4 13 15 12 14 13 14 12 11 10 9 5 5 4 4 6 8 9 8 8 8 6 6 7 8 9 9 9 9 12 13 11 12
6 16 18 12 10 14 13 14 16 13 4 4 12 16 16 15 19 17 15 12 11 9 9 7 7 6 6 8 7 7 8 7 6 6 7 6 8 9 9 9 11 13 13 12
17 4 5 10 8 12 15 15 14 14 2 10 13 19 22 24 16 11 11 11 12 13 12 10 9 9 8 8 7 7 8 8 8 10 8 8 8 8 8 8 8 10 13 13
15 12 6 10 15 14 16 13 14 11 7 10 5 11 12 10 16 16 14 15 14 14 12 12 11 11 9 7 7 8 8 8 7 8 8 9 8 9 8 9 8 9 12 12
5 9 12 14 12 11 7 2 6 10 13 14 16 10 13 10 16 19 18 17 16 15 15 14 12 10 9 8 7 7 8 8 7 7 8 7 11 8 7 8 11 11 10 11
11 3 6 9 3 8 11 5 3 2 7 11 18 17 11 12 15 16 18 19 19 18 16 14 11 9 8 7 8 7 8 8 8 7 8 10 11 11 9 8 7 7 7 7
14 15 6 5 6 3 13 9 5 6 7 9 1 15 14 5 7 7 20 21 21 19 18 17 15 12 10 9 8 8 8 9 8 9 9 9 9 10 11 9 7 7 6 6
15 10 23 17 22 10 20 18 7 7 7 5 2 11 7 2 8 5 15 18 19 19 17 17 17 14 13 11 10 9 9 9 9 9 9 7 8 5 6 7 6 6 6 6
11 11 6 9 8 16 8 15 13 5 2 5 8 11 9 8 8 8 14 18 20 20 19 20 18 15 14 13 12 11 11 10 9 10 8 8 6 7 7 8 8 6 7 6
4 7 5 6 3 5 8 8 6 7 7 8 10 16 10 9 15 15 17 20 19 18 19 18 16 15 13 13 11 12 11 11 10 10 9 8 8 8 8 7 7 7 7 6
8 6 7 7 13 18 8 10 10 6 9 5 6 8 8 15 17 21 18 18 20 20 19 17 16 14 14 13 12 12 11 12 10 9 10 9 8 8 7 6 7 6 6 5
15 3 10 14 3 9 17 14 20 7 6 6 4 14 2 1 11 14 17 17 18 20 18 17 16 16 14 13 12 12 11 11 10 10 10 9 10 8 7 7 7 6 6 4
15 5 3 5 2 1 10 15 15 17 2 16 7 7 2 4 4 10 15 17 17 18 18 17 17 17 16 15 14 13 13 12 11 11 10 9 9 9 8 7 7 6 6 5
12 7 13 19 9 10 11 17 21 18 13 15 28 16 6 9 11 12 12 14 17 18 18 18 17 18 17 16 15 14 13 13 12 12 11 11 10 10 8 8 7 7 6 6
14 13 18 25 23 16 9 19 24 29 35 19 26 24 15 14 16 17 15 13 15 16 18 18 18 17 17 16 15 14 13 13 13 12 12 12 10 10 9 8 7 5 5 5
4 10 16 24 22 22 21 19 25 31 30 31 28 28 2 15 12 11 14 14 15 15 17 18 17 17 17 17 15 14 14 14 13 14 13 12 11 9 7 8 7 7 7 5
12 7 8 17 13 18 8 40 22 24 30 23 29 26 7 7 11 11 10 10 11 13 15 16 17 15 14 14 13 14 14 12 13 11 9 8 9 10 10 9 8 8 7 7
13 14 8 9 5 14 21 5 20 32 28 23 18 1 3 7 5 4 2 8 8 6 10 12 11 12 11 11 12 11 10 10 10 10 9 9 10 11 10 10 9 8 7 7
7 12 5 8 12 11 17 5 9 12 22 21 14 11 9 6 4 4 6 3 6 8 8 9 10 11 12 11 10 8 7 8 10 12 12 12 12 11 11 11 10 8 7 6
2 9 10 4 8 11 4 7 1 7 12 8 16 15 11 12 7 7 12 8 8 9 8 9 9 7 9 8 9 9 9 10 12 11 13 11 11 11 12 11 10 7 5 6
4 3 14 14 7 5 2 6 3 9 2 2 11 13 12 8 3 7 12 8 7 7 8 7 7 7 7 9 9 9 9 11 10 7 7 8 10 10 9 8 6 7 6 5
11 10 6 6 5 11 6 4 8 0 2 4 4 5 8 7 6 8 10 9 9 9 7 6 6 5 6 7 8 7 9 7 6 7 7 7 7 6 6 8 7 6 6 5
7 5 5 6 1 2 4 3 1 1 3 2 4 5 8 8 6 9 8 8 6 7 6 4 4 5 5 6 6 8 7 7 7 6 6 6 6 6 6 7 7 6 6 6
5 2 3 5 3 1 3 4 4 2 2 3 3 9 9 9 9 7 7 6 6 5 5 5 6 5 6 5 6 4 5 6 6 6 6 6 7 7 5 5 6 6 7 7
2 9 6 4 5 7 8 7 8 6 3 4 5 6 9 9 9 9 7 6 6 6 4 4 5 5 6 6 7 6 6 7 5 5 6 6 6 7 7 7 6 7 7 7
6 6 5 3 11 6 13 13 11 8 9 7 7 5 3 6 9 6 6 6 6 6 4 4 4 4 2 4 4 5 5 7 7 6 6 6 6 6 6 5 5 14 14 12
Wind_Direction
202 217 217 223 226 254 294 282 268 281 90 268 242 251 232 193 212 217 207 197 188 178 151 134 121 130 126 120 121 118 114 127 121 112 107 88 85 83 74 66 60 57 55 58
183 230 238 241 269 237 240 253 257 268 141 256 272 262 258 204 211 214 212 206 190 164 160 147 140 140 131 124 119 113 119 122 108 106 100 104 107 96 93 83 67 65 63 55
227 216 257 195 210 220 234 240 252 263 129 237 274 266 252 243 203 219 240 208 186 181 167 156 148 138 131 124 121 119 111 109 106 111 111 107 111 104 95 80 72 66 66 65
242 232 160 207 228 219 246 224 255 265 253 264 160 284 281 240 201 210 206 202 188 177 166 154 150 146 130 115 108 113 110 110 117 138 137 129 107 106 97 94 89 73 66 65
201 187 200 212 222 208 250 58 233 252 261 274 250 267 261 248 217 206 205 198 192 176 168 163 154 137 122 129 122 118 114 109 113 107 112 113 111 111 110 106 100 90 77 69
260 19 212 227 85 207 129 124 117 229 255 250 231 228 250 196 232 223 187 191 185 176 171 158 144 148 140 137 128 122 120 114 115 116 117 119 123 125 123 118 105 99 91 79
214 218 173 185 147 162 201 178 237 232 210 255 121 215 252 205 173 209 181 185 181 175 172 165 166 168 159 153 141 134 131 122 117 110 108 114 119 120 124 127 122 122 105 90
209 219 198 199 214 189 200 203 202 242 225 260 50 233 244 283 106 114 175 179 175 178 177 175 176 171 165 157 156 152 146 135 130 122 114 111 120 119 120 116 117 113 114 107
210 237 174 179 219 210 172 223 242 307 154 268 212 241 265 156 175 165 171 174 181 183 182 181 177 176 170 171 170 165 155 148 145 139 134 139 136 134 128 124 124 118 117 110
235 247 168 144 162 252 221 157 171 219 225 237 245 244 235 211 199 183 179 182 182 183 185 184 181 178 175 176 172 171 168 165 157 154 151 150 149 148 148 141 128 119 118 118
210 239 128 153 203 186 178 203 225 246 227 252 272 247 193 204 196 188 187 186 184 185 186 184 180 177 178 177 176 177 175 170 167 171 162 155 157 160 155 138 131 125 122 124
203 255 236 217 102 276 234 213 205 213 191 238 280 257 116 239 185 175 183 184 185 187 186 183 180 178 180 180 179 181 181 174 176 176 173 168 165 165 162 153 144 143 141 150
163 201 236 249 197 186 228 221 227 231 51 228 210 248 73 122 142 167 177 181 182 183 184 182 182 186 183 183 184 187 184 182 180 176 179 176 176 175 177 163 158 166 159 168
162 148 205 232 222 163 201 211 210 216 226 233 236 249 178 204 190 181 184 179 182 183 184 185 189 189 186 186 183 189 188 186 183 183 185 186 186 187 178 172 169 172 181 182
179 221 218 241 256 267 212 214 205 210 227 216 246 237 226 193 197 192 182 177 178 182 186 193 193 192 188 188 185 189 191 189 184 188 193 193 187 188 179 171 168 167 183 200
184 232 224 256 243 243 241 237 217 216 229 234 249 254 229 182 187 183 179 171 186 188 193 197 195 190 190 187 186 183 192 188 186 191 198 194 185 179 162 164 172 176 189 191
161 200 190 245 223 245 273 235 227 229 225 225 234 246 167 161 180 193 175 178 196 200 194 193 196 189 187 187 180 189 192 180 188 191 188 180 170 166 175 174 178 189 191 200
177 193 208 249 115 217 238 251 228 233 237 228 244 67 155 161 108 92 112 187 202 186 185 186 185 184 179 182 181 184 180 180 177 187 179 174 168 179 176 177 188 189 192 201
209 183 202 217 214 293 271 178 178 181 244 227 221 137 137 99 59 284 220 197 188 179 175 171 173 175 164 168 164 160 144 158 172 190 190 186 184 184 180 187 188 190 191 200
51 212 207 152 224 229 346 123 228 106 257 196 181 175 152 144 192 227 169 169 157 152 143 141 133 120 138 145 140 141 160 169 193 193 198 186 183 184 190 188 183 181 188 205
145 187 215 221 228 273 130 150 183 171 277 55 148 157 151 159 188 120 138 146 139 126 123 121 132 151 153 147 145 162 162 194 198 173 158 167 177 184 184 170 171 166 182 205
177 175 194 206 224 242 135 105 190 61 53 122 138 166 151 106 110 130 139 139 137 133 133 139 144 152 137 140 153 159 185 188 142 146 154 159 156 158 160 159 153 163 183 198
209 196 174 208 205 325 152 19 250 311 111 165 148 158 145 135 152 147 140 136 135 138 132 132 137 146 151 157 174 179 202 143 142 143 141 138 139 157 154 159 167 177 191 216
223 194 182 154 130 142 59 359 323 300 277 126 104 150 161 152 145 129 135 145 147 147 159 146 154 184 201 182 185 177 122 125 131 145 147 146 157 166 161 183 188 194 202 206
65 145 141 89 121 140 206 228 232 222 188 145 139 164 166 145 155 155 155 162 169 165 151 158 178 197 225 174 195 163 145 136 153 155 156 167 177 181 183 208 201 210 218 218
182 154 181 182 156 158 195 211 213 188 203 174 154 127 110 140 159 151 174 179 173 171 152 168 184 199 194 164 156 143 144 158 163 167 168 182 180 178 202 201 220 236 241 240